Wind_Speed
51 49 50 50 50 48 45 38 41 42 47 50 48 51 52 54 56 55 57 56 50 50 49 49 50 47 47 45 45 45 40 37 52 58 52 55 44 44 50 47 47 47 47 47
50 48 50 48 44 45 52 53 60 61 61 52 51 48 48 49 51 49 45 46 47 52 53 53 58 59 53 51 48 40 41 40 57 53 44 39 40 42 35 42 41 32 37 33
49 46 48 47 46 47 50 50 50 56 54 54 59 56 52 59 60 64 65 64 63 55 41 45 48 44 45 46 46 48 51 39 42 39 48 51 48 43 46 37 44 36 35 35
46 43 47 41 39 43 46 45 43 45 43 41 45 41 42 43 50 55 53 43 44 40 38 39 43 42 41 41 42 40 37 43 50 52 47 47 51 47 46 44 36 37 37 37
56 55 51 46 37 39 44 41 37 40 35 35 35 38 42 46 49 44 36 37 37 36 36 37 39 39 40 39 38 38 37 38 40 42 43 44 44 44 42 39 37 41 37 38
59 61 60 49 42 44 42 41 35 41 41 38 35 37 40 45 34 30 31 31 30 29 29 31 33 37 39 40 42 43 44 46 46 47 47 46 45 40 38 38 39 38 38 38
52 54 52 46 43 42 45 47 37 33 32 33 37 39 38 31 25 21 18 16 19 23 26 29 31 32 34 37 40 41 41 41 41 42 40 37 37 36 33 35 36 38 40 40
51 52 55 45 45 52 45 39 42 36 32 34 33 33 28 24 22 20 17 20 19 19 26 28 29 30 33 34 36 41 37 34 34 34 35 35 36 37 37 34 35 36 36 36
55 56 47 40 45 42 44 45 37 33 32 31 26 27 29 26 23 22 22 24 23 24 22 27 31 36 41 40 34 35 39 37 34 36 36 32 30 31 34 34 31 32 33 34
51 44 45 39 41 35 41 36 31 30 29 28 24 26 32 31 28 28 29 30 33 32 35 37 37 39 45 42 33 32 32 33 36 29 24 25 26 33 31 32 33 35 34 34
47 39 39 40 28 47 32 29 28 32 31 31 29 27 34 36 41 40 41 40 42 43 41 41 43 44 49 40 29 27 25 23 22 23 25 26 29 30 31 31 33 33 37 37
47 40 41 27 35 37 30 29 27 31 34 34 34 31 34 35 37 42 46 46 44 45 46 46 48 49 45 33 28 23 20 19 19 21 24 28 29 29 31 33 35 39 40 36
36 41 51 44 51 42 30 27 31 35 35 34 32 32 36 37 35 37 42 45 48 51 53 53 53 47 39 30 27 24 20 22 22 22 25 28 27 33 37 39 38 35 34 33
49 51 35 43 23 37 34 32 34 36 35 36 33 31 36 33 39 38 44 50 55 59 57 52 43 38 32 28 27 29 25 26 26 27 29 30 29 32 34 34 34 33 32 31
38 54 38 38 30 35 35 35 37 32 34 31 30 32 31 36 41 47 47 49 47 45 40 34 30 28 27 27 28 31 32 30 30 31 32 30 28 28 31 31 31 31 30 28
31 31 39 42 33 33 43 35 32 34 31 27 29 29 34 39 44 46 44 40 34 29 26 24 23 22 23 23 24 29 33 34 33 31 30 28 27 26 27 27 27 28 27 27
28 32 33 35 34 37 34 32 35 33 30 26 27 31 37 40 39 37 34 27 22 18 15 13 13 16 19 22 24 25 28 30 25 26 26 26 25 25 25 24 23 24 25 25
36 37 37 35 33 31 33 35 35 32 27 27 29 35 37 36 34 32 29 24 21 18 15 13 14 16 19 22 25 27 26 26 26 24 23 23 23 23 23 23 23 23 24 26
36 36 40 33 30 28 30 30 28 27 26 29 32 36 38 33 30 28 24 19 18 18 19 18 19 20 22 24 26 25 23 23 22 21 20 19 19 20 22 23 25 25 25 26
30 31 30 23 23 25 24 25 25 26 25 30 35 37 31 30 27 24 22 21 22 23 23 21 18 14 11 9 9 9 8 9 10 12 13 15 16 17 18 19 20 20 19 21
4 6 10 14 20 23 26 24 25 29 29 34 38 33 31 29 26 25 24 23 23 20 15 11 8 7 7 7 8 8 9 9 10 11 12 13 14 15 17 19 20 21 23 23
14 16 19 21 21 21 22 25 29 33 36 39 33 30 28 26 25 25 24 21 17 13 12 10 9 9 9 10 11 12 12 13 14 15 16 16 18 19 20 21 22 23 24 25
26 25 26 28 30 31 37 38 41 40 39 33 30 28 25 23 22 21 19 16 14 14 13 11 10 11 11 13 14 15 16 16 17 18 19 20 21 22 22 23 24 25 26 26
35 40 38 39 38 41 41 38 35 32 30 30 28 27 23 20 17 17 16 16 15 15 14 14 14 14 15 16 17 18 19 19 20 21 22 22 23 23 24 24 26 26 27 27
16 17 18 20 22 22 22 23 21 21 23 23 22 22 19 17 17 17 17 16 15 16 17 16 17 18 18 20 21 21 22 22 23 23 23 23 24 25 25 26 27 27 27 27
15 16 15 15 18 19 20 19 19 19 19 19 19 18 17 17 17 18 17 17 17 18 19 19 20 21 22 23 24 24 25 25 25 25 25 25 26 26 26 27 27 28 28 29
21 21 21 22 21 18 18 18 17 16 16 16 16 16 17 18 18 19 19 20 20 21 22 22 23 23 24 25 25 26 26 26 26 26 26 27 27 27 27 28 30 31 32 32
Wind_Direction
264 262 262 260 259 257 258 253 255 261 261 274 268 273 276 275 273 271 272 272 272 272 274 277 278 280 281 281 279 278 265 265 263 255 253 274 277 265 271 270 268 272 277 278
263 265 266 263 260 262 260 263 266 265 267 273 273 270 268 263 263 262 261 267 271 277 278 276 280 283 282 282 275 261 266 262 259 270 269 266 266 265 263 256 264 282 280 279
263 265 267 267 273 268 269 267 268 269 272 268 273 278 285 281 283 281 281 287 287 291 284 279 284 279 274 273 272 272 277 263 258 263 259 257 252 259 260 276 280 280 286 285
266 264 265 280 277 273 274 277 274 281 286 286 284 291 292 290 290 289 291 286 288 284 276 270 272 270 267 271 267 266 260 253 251 253 260 258 259 261 268 276 280 288 285 280
260 263 272 274 276 275 276 272 274 278 278 292 291 289 291 282 296 290 280 276 276 271 268 268 270 274 273 272 273 270 263 262 262 264 267 264 269 271 277 283 285 276 280 281
260 264 267 276 272 273 271 267 272 278 282 284 289 296 288 289 285 271 269 269 272 277 276 277 277 276 274 271 271 273 272 272 273 275 276 279 281 283 283 280 277 276 280 278
262 265 270 273 272 267 263 276 266 272 283 288 297 296 291 283 262 252 260 277 286 282 281 280 282 286 284 283 277 275 276 277 278 278 278 277 276 273 274 277 277 277 276 274
261 261 264 278 261 259 265 261 270 273 278 285 297 292 281 257 250 259 278 295 286 288 291 295 301 296 292 291 286 274 272 276 274 270 269 268 267 270 270 278 275 273 275 280
256 266 267 259 265 264 265 261 263 268 278 288 292 282 262 252 256 257 266 283 282 284 286 301 303 306 302 297 287 276 265 266 276 270 276 271 271 271 267 267 272 276 281 283
251 248 257 251 259 249 246 258 255 266 277 284 285 273 253 252 257 262 271 274 283 287 296 294 298 302 303 298 285 277 269 272 271 264 270 273 257 270 271 271 275 283 280 285
245 245 243 252 256 238 234 236 254 260 273 278 277 263 261 264 259 264 268 274 279 285 290 289 295 299 301 296 281 274 267 258 267 275 276 274 273 274 277 276 276 279 285 284
229 217 226 225 241 247 247 246 255 262 267 272 278 263 262 266 267 268 271 277 280 282 287 291 294 296 295 286 270 245 252 265 272 278 281 279 274 274 278 280 279 280 283 284
224 220 233 230 238 239 239 251 273 267 267 271 273 268 274 277 276 275 277 277 279 284 288 289 293 291 284 271 260 245 256 264 272 287 296 290 274 261 267 271 276 280 282 283
222 219 233 226 217 234 240 251 260 261 263 274 272 274 277 276 283 284 283 287 286 285 286 290 286 280 272 258 252 256 258 266 276 290 293 290 279 267 267 271 276 279 281 281
216 223 226 233 235 240 246 251 254 261 270 268 272 271 276 284 286 288 294 294 293 292 288 284 276 273 259 252 252 253 261 271 280 288 289 285 285 279 275 275 277 278 278 277
250 240 231 242 244 243 244 250 255 263 260 259 267 269 280 285 288 296 304 303 297 292 286 280 275 261 251 254 261 259 264 274 283 286 280 277 279 281 282 281 278 277 276 279
251 258 249 240 240 241 245 246 254 250 252 261 265 277 286 288 292 296 303 306 309 302 287 278 266 257 256 263 270 273 278 281 279 275 276 277 278 281 282 281 278 280 282 276
247 247 234 234 236 230 234 244 250 245 256 263 275 280 286 288 292 293 296 296 298 298 292 280 274 272 271 274 279 282 280 271 272 278 278 279 276 277 277 279 280 282 281 281
243 244 239 230 221 239 242 244 240 246 255 271 277 284 285 284 286 290 289 290 293 293 289 285 282 280 279 278 279 279 277 274 273 272 274 276 276 277 281 283 284 285 285 285
226 217 221 221 225 221 224 226 233 249 267 280 293 293 280 280 277 283 283 287 290 288 286 282 277 274 276 277 278 280 283 286 283 281 280 280 282 284 284 285 286 288 289 289
165 192 209 216 227 233 235 241 261 261 273 283 291 279 280 271 268 273 279 287 285 284 272 258 253 255 260 269 277 282 286 286 287 288 288 288 289 291 291 292 292 292 292 292
251 246 237 234 239 242 247 257 271 271 280 287 275 274 274 266 263 267 275 277 270 252 244 244 251 258 266 273 279 282 284 287 288 289 290 290 291 292 293 293 294 294 294 295
265 256 257 258 256 262 266 268 281 277 277 268 263 270 267 262 261 260 261 253 241 240 245 251 257 263 268 274 279 282 285 287 289 291 292 292 292 293 294 295 296 297 298 298
261 265 265 264 265 271 270 273 270 263 257 257 260 260 259 259 252 246 239 234 235 242 247 255 261 267 273 278 280 282 284 285 289 291 292 292 293 293 295 297 298 300 300 300
271 264 255 252 254 256 261 265 260 261 259 256 251 248 247 244 238 233 234 237 239 246 255 262 268 273 277 280 282 282 283 285 287 289 291 292 292 294 296 298 299 301 301 302
269 272 269 258 258 258 263 265 267 266 256 244 239 237 236 236 236 239 243 247 251 255 261 267 273 278 281 283 283 283 283 283 286 287 289 291 293 294 296 298 299 300 300 300
272 270 264 261 261 261 268 265 260 256 246 238 234 235 236 239 241 245 249 253 258 264 269 273 277 281 283 284 284 283 282 283 286 286 288 292 293 293 295 296 297 298 298 298
Height
5602 5604 5606 5608 5610 5613 5611 5613 5608 5618 5609 5623 5611 5610 5615 5611 5607 5607 5607 5605 5603 5604 5604 5599 5597 5598 5595 5596 5597 5597 5597 5598 5596 5594 5591 5592 5591 5588 5586 5584 5580 5579 5578 5578
5588 5592 5590 5593 5598 5600 5599 5603 5598 5599 5599 5612 5600 5597 5599 5596 5593 5592 5593 5591 5591 5589 5588 5589 5587 5584 5585 5585 5583 5584 5586 5584 5582 5579 5581 5582 5578 5576 5573 5571 5569 5570 5567 5566
5575 5581 5579 5577 5590 5588 5587 5588 5586 5582 5591 5595 5589 5585 5580 5581 5579 5581 5580 5578 5577 5576 5574 5566 5567 5570 5567 5568 5568 5567 5567 5569 5568 5568 5569 5567 5566 5564 5561 5560 5557 5556 5556 5557
5565 5566 5562 5575 5577 5575 5572 5572 5573 5572 5574 5574 5577 5573 5569 5565 5569 5568 5568 5562 5561 5560 5559 5557 5553 5554 5555 5552 5553 5552 5553 5553 5553 5553 5552 5553 5552 5553 5547 5549 5546 5545 5547 5547
5552 5553 5557 5559 5570 5568 5561 5563 5566 5565 5564 5564 5566 5563 5561 5553 5558 5555 5553 5551 5549 5547 5547 5545 5543 5542 5542 5541 5540 5540 5540 5539 5540 5540 5539 5540 5538 5537 5536 5537 5537 5536 5537 5537
5541 5539 5542 5557 5561 5557 5553 5546 5559 5552 5555 5555 5553 5550 5548 5545 5545 5544 5542 5541 5539 5538 5537 5536 5535 5534 5532 5531 5529 5528 5528 5528 5528 5528 5528 5528 5528 5527 5527 5527 5527 5526 5527 5528
5527 5525 5530 5546 5548 5540 5539 5547 5544 5545 5545 5544 5541 5539 5538 5537 5536 5535 5535 5534 5533 5531 5530 5528 5527 5525 5523 5521 5519 5517 5517 5517 5516 5517 5517 5517 5517 5517 5517 5518 5517 5517 5517 5516
5516 5515 5517 5539 5531 5525 5536 5530 5532 5535 5536 5534 5532 5530 5529 5530 5529 5529 5528 5527 5526 5525 5522 5520 5519 5517 5514 5511 5507 5506 5506 5505 5506 5507 5507 5507 5508 5508 5509 5508 5508 5507 5507 5506
5502 5504 5514 5519 5517 5519 5517 5519 5523 5524 5525 5523 5524 5522 5522 5522 5522 5521 5520 5519 5518 5517 5516 5512 5509 5507 5503 5500 5496 5495 5495 5496 5496 5497 5497 5497 5498 5499 5498 5498 5498 5497 5496 5495
5489 5494 5498 5501 5505 5505 5505 5510 5512 5513 5514 5514 5514 5514 5515 5515 5514 5512 5511 5509 5508 5507 5506 5503 5500 5497 5493 5489 5485 5485 5485 5487 5487 5487 5487 5488 5490 5489 5488 5488 5488 5487 5486 5486
5476 5486 5487 5489 5491 5489 5496 5500 5503 5503 5504 5504 5505 5505 5506 5506 5505 5503 5501 5500 5498 5496 5495 5492 5488 5485 5481 5478 5476 5476 5477 5478 5478 5478 5479 5479 5479 5478 5478 5478 5478 5478 5477 5476
5463 5475 5476 5479 5482 5483 5487 5492 5494 5495 5494 5494 5494 5495 5495 5495 5495 5493 5491 5490 5488 5484 5482 5480 5476 5473 5470 5469 5467 5467 5469 5469 5470 5470 5470 5469 5469 5469 5469 5469 5468 5468 5467 5466
5452 5459 5465 5468 5469 5475 5481 5483 5485 5485 5485 5486 5486 5486 5486 5485 5485 5483 5479 5477 5474 5471 5468 5465 5462 5460 5459 5458 5459 5460 5461 5462 5462 5462 5461 5461 5460 5460 5460 5460 5459 5458 5458 5456
5441 5448 5453 5459 5459 5465 5472 5473 5475 5476 5477 5477 5477 5477 5477 5476 5471 5472 5469 5463 5459 5453 5451 5449 5446 5446 5446 5448 5451 5452 5453 5454 5454 5454 5454 5452 5452 5451 5451 5450 5450 5450 5449 5448
5429 5436 5440 5444 5449 5455 5459 5462 5464 5468 5469 5469 5469 5468 5467 5465 5461 5457 5455 5449 5442 5436 5434 5434 5434 5435 5436 5440 5442 5444 5446 5446 5446 5446 5445 5444 5443 5442 5442 5442 5441 5441 5440 5440
5419 5425 5432 5437 5443 5447 5450 5453 5457 5459 5459 5459 5459 5459 5458 5455 5450 5445 5441 5435 5429 5426 5424 5424 5425 5426 5429 5433 5434 5436 5438 5438 5437 5437 5436 5436 5435 5435 5434 5433 5433 5432 5432 5432
5413 5419 5426 5432 5435 5438 5441 5446 5449 5449 5450 5449 5450 5450 5449 5445 5442 5437 5433 5429 5424 5421 5419 5419 5420 5422 5425 5426 5427 5428 5429 5428 5428 5428 5428 5427 5427 5427 5426 5426 5425 5425 5424 5423
5407 5412 5417 5422 5426 5429 5433 5436 5438 5441 5441 5441 5441 5440 5438 5436 5433 5430 5427 5424 5421 5419 5418 5417 5417 5418 5419 5419 5420 5420 5420 5420 5420 5420 5420 5420 5420 5419 5419 5419 5418 5418 5417 5416
5401 5405 5410 5414 5417 5421 5424 5426 5429 5431 5431 5432 5432 5430 5428 5426 5425 5422 5421 5419 5417 5416 5415 5414 5414 5413 5413 5413 5413 5412 5412 5412 5413 5413 5413 5413 5413 5413 5413 5412 5412 5411 5410 5408
5395 5399 5402 5405 5409 5413 5416 5418 5420 5422 5422 5423 5422 5420 5419 5418 5416 5416 5415 5414 5412 5411 5410 5409 5408 5407 5408 5408 5408 5408 5408 5408 5407 5407 5407 5407 5407 5406 5406 5405 5405 5404 5403 5401
5392 5395 5398 5401 5405 5407 5409 5410 5412 5413 5413 5413 5412 5411 5409 5408 5408 5409 5408 5407 5406 5405 5405 5405 5405 5405 5405 5405 5405 5405 5405 5405 5404 5404 5403 5403 5402 5401 5401 5400 5399 5398 5396 5396
5390 5392 5394 5396 5398 5398 5400 5402 5403 5403 5403 5402 5402 5401 5400 5399 5400 5401 5401 5401 5400 5400 5401 5402 5402 5402 5402 5402 5402 5402 5402 5401 5401 5400 5399 5398 5397 5396 5395 5394 5393 5391 5389 5388
5383 5385 5386 5388 5389 5390 5392 5392 5392 5392 5392 5392 5392 5392 5392 5392 5393 5393 5394 5395 5396 5397 5398 5398 5398 5399 5399 5398 5398 5398 5397 5397 5396 5395 5394 5393 5392 5390 5389 5387 5386 5384 5382 5380
5372 5374 5375 5377 5378 5379 5379 5380 5380 5380 5381 5382 5383 5384 5384 5385 5386 5387 5388 5390 5391 5393 5393 5394 5394 5394 5394 5394 5393 5393 5392 5391 5390 5389 5388 5386 5385 5383 5382 5380 5378 5376 5374 5372
5364 5364 5365 5366 5368 5369 5370 5370 5370 5370 5371 5373 5374 5376 5377 5378 5380 5382 5383 5385 5387 5388 5388 5389 5389 5389 5389 5388 5387 5386 5386 5384 5383 5382 5381 5379 5378 5376 5374 5373 5370 5368 5366 5363
5360 5360 5360 5361 5362 5362 5362 5362 5363 5363 5364 5366 5367 5369 5371 5373 5375 5377 5379 5380 5382 5383 5383 5383 5383 5383 5382 5381 5380 5379 5378 5377 5376 5374 5373 5372 5370 5368 5366 5364 5362 5360 5358 5355
5356 5355 5355 5356 5356 5356 5356 5357 5358 5359 5360 5361 5362 5364 5366 5368 5370 5372 5373 5374 5375 5376 5376 5376 5376 5375 5375 5373 5372 5371 5370 5369 5367 5366 5365 5363 5361 5359 5358 5355 5353 5351 5348 5346